This is the latest recevied weather packets stored in our database for station/object KC9DNQ-3. If no packets are shown the sender has not sent any weather packets the latest 10 day(s).
| Time | Temp. | Humidity | Pressure | Rain* | Wind** | Luminosity | Snow |
|---|---|---|---|---|---|---|---|
| 1777600809 | 10° C | 85% | 1013.3 hPa | 0.25 mm | - | 0 W/m² | - |
| 1777600510 | 10° C | 84% | 1013.3 hPa | 0 mm | - | 0 W/m² | - |
| 1777600211 | 10° C | 84% | 1013 hPa | 0 mm | - | 0 W/m² | - |
| 1777599910 | 10° C | 84% | 1013 hPa | 0 mm | - | 0 W/m² | - |
| 1777599610 | 10° C | 83% | 1013 hPa | 0 mm | - | 0 W/m² | - |
| 1777599310 | 10° C | 83% | 1013 hPa | 0 mm | - | 0 W/m² | - |
| 1777599011 | 10° C | 83% | 1013 hPa | 0 mm | - | 0 W/m² | - |
| 1777598710 | 10° C | 83% | 1013 hPa | 0 mm | - | 0 W/m² | - |
| 1777598411 | 10° C | 82% | 1013 hPa | 0 mm | - | 0 W/m² | - |
| 1777598110 | 10° C | 82% | 1012.8 hPa | 0 mm | - | 0 W/m² | - |
| 1777597809 | 10° C | 82% | 1012.8 hPa | 0 mm | - | 0 W/m² | - |
| 1777597511 | 10° C | 82% | 1012.8 hPa | 0 mm | - | 0 W/m² | - |
| 1777597210 | 10.56° C | 81% | 1012.8 hPa | 0 mm | - | 0 W/m² | - |
| 1777596910 | 10.56° C | 81% | 1012.8 hPa | 0 mm | - | 0 W/m² | - |
| 1777596610 | 10.56° C | 81% | 1012.8 hPa | 0 mm | - | 0 W/m² | - |
| 1777596310 | 10.56° C | 80% | 1012.8 hPa | 0 mm | - | 0 W/m² | - |
| 1777596011 | 10.56° C | 81% | 1012.8 hPa | 0 mm | - | 0 W/m² | - |
| 1777595710 | 10.56° C | 80% | 1012.7 hPa | 0 mm | - | 5 W/m² | - |
| 1777595410 | 10.56° C | 79% | 1012.7 hPa | 0 mm | - | 0 W/m² | - |
| 1777595109 | 10.56° C | 80% | 1012.6 hPa | 0 mm | - | 5 W/m² | - |
| 1777594810 | 10.56° C | 80% | 1012.7 hPa | 0 mm | - | 9 W/m² | - |
| 1777594510 | 10.56° C | 80% | 1012.7 hPa | 0 mm | - | 16 W/m² | - |
| 1777594210 | 10.56° C | 79% | 1012.7 hPa | 0 mm | - | 16 W/m² | - |
| 1777593910 | 11.11° C | 80% | 1012.7 hPa | 0 mm | - | 19 W/m² | - |
| 1777593610 | 11.11° C | 80% | 1012.7 hPa | 0 mm | - | 32 W/m² | - |
* Rain latest hour (hover to see other rain measurements)
** Current wind speed in m/s (hover to see current wind gust speed)